Wind_Speed
20 21 22 22 21 22 21 18 17 16 17 18 18 19 20 20 21 22 21 19 19 18 17 19 19 19 19 21 23 24 23 21 19 20 24 27 28 27 25 23 22 22 21 20 19 20 21 21 21 22 21 21 20 20 19 20 19 18 18 17 16 16 16 15 15 14 12 12 12 12 12 12 11 12 12 12 13 12 11 11 10 11 12 13 14
21 22 22 21 21 21 21 18 17 17 17 17 18 19 19 19 20 21 20 18 18 18 17 19 19 18 18 19 21 22 22 21 20 19 22 26 27 27 25 23 22 22 22 21 20 20 21 21 22 22 21 21 21 21 20 20 19 19 18 18 18 17 16 16 16 14 13 12 13 13 13 12 12 12 13 14 14 13 13 12 11 12 11 11 12
20 21 21 20 20 20 20 20 18 17 17 18 17 18 19 19 20 21 19 18 19 19 18 19 18 17 17 18 19 20 20 20 19 20 22 24 26 26 25 24 23 23 22 21 21 21 21 21 22 22 22 22 22 22 21 21 20 20 19 19 18 17 16 17 16 15 14 13 13 14 14 13 13 13 14 15 15 15 15 13 13 14 14 12 11
16 18 19 19 19 19 20 20 19 18 17 17 16 17 18 19 20 22 20 18 19 19 18 18 18 16 16 16 17 18 19 20 20 20 22 24 25 26 25 24 24 23 23 22 21 21 21 21 22 22 22 22 23 23 23 22 21 21 20 20 19 17 16 16 17 17 15 14 14 14 14 15 14 14 15 15 16 17 17 15 14 14 16 15 14
15 18 19 19 18 18 18 18 17 18 17 17 17 18 18 19 20 21 20 18 18 18 17 19 19 17 16 16 17 18 19 20 21 21 22 23 24 25 24 24 24 24 23 22 22 22 21 21 21 22 23 23 23 23 24 24 23 22 21 20 20 18 16 16 17 19 18 16 14 15 16 16 16 16 16 17 17 18 18 17 16 15 16 16 16
17 18 16 16 16 15 15 15 16 17 17 17 17 18 19 19 19 20 19 19 21 20 19 20 20 18 17 17 17 18 20 21 22 23 23 23 23 23 23 24 24 24 23 22 22 22 21 22 22 22 23 23 23 24 25 25 24 22 22 21 20 20 18 17 18 19 19 18 16 16 17 17 17 17 18 18 19 19 18 18 17 16 17 18 18
16 16 14 13 13 13 14 14 15 15 15 16 16 17 18 17 18 20 19 18 21 21 19 19 20 19 18 18 18 19 21 22 22 23 23 22 22 23 23 24 23 23 23 23 23 23 23 23 23 23 24 24 24 25 26 26 25 23 22 22 21 20 20 19 18 19 20 19 18 18 18 18 18 19 20 21 21 20 19 19 18 18 19 20 20
14 14 14 13 13 14 14 14 14 14 14 15 16 17 17 16 18 20 18 16 19 20 19 19 20 20 19 19 19 20 21 22 22 22 21 21 21 22 23 23 22 22 23 23 24 24 24 24 23 23 24 25 26 26 27 26 25 24 23 22 22 21 21 20 20 20 20 19 19 19 19 20 20 20 21 22 21 20 20 20 20 19 20 21 20
13 14 15 15 15 14 13 14 15 14 14 15 16 16 16 17 18 19 18 18 19 19 19 19 20 20 19 19 19 20 20 21 21 20 20 21 21 21 21 21 22 22 23 23 24 24 24 23 24 25 26 27 27 27 27 27 25 24 23 23 22 21 22 21 21 21 21 20 20 20 21 22 22 20 21 22 21 20 20 21 22 22 22 22 22
13 16 16 16 15 14 13 14 14 13 14 15 16 16 16 17 18 18 18 19 20 19 19 20 20 21 20 20 19 20 20 21 21 21 21 21 21 21 21 21 22 23 23 23 23 23 24 24 25 26 27 27 27 28 28 27 25 24 23 23 22 22 22 22 22 21 21 21 21 21 22 23 22 22 22 22 21 20 21 22 23 23 23 23 23
8 14 16 15 15 14 14 15 14 14 15 15 16 16 15 16 18 18 18 18 19 19 19 20 21 21 21 20 20 20 22 22 22 21 21 21 21 22 21 22 23 23 23 23 23 24 24 25 26 26 26 26 27 28 28 26 25 24 24 23 23 22 23 23 23 22 22 23 22 22 22 22 23 24 24 23 22 22 22 23 23 24 24 24 23
5 9 14 15 15 16 16 16 15 15 15 16 16 16 15 16 18 18 17 17 17 18 18 20 21 21 21 20 20 21 22 23 22 21 21 21 22 22 21 22 23 23 23 23 23 23 24 25 26 26 26 27 28 28 27 26 25 25 25 24 23 23 23 24 24 24 24 23 23 22 22 23 25 26 25 23 23 23 24 24 24 24 24 25 25
6 5 10 14 16 16 16 16 17 17 17 17 17 17 16 15 17 17 17 17 17 17 18 19 19 20 20 20 20 21 21 22 22 22 22 22 22 22 22 22 23 23 23 23 23 23 24 25 26 27 28 28 29 28 27 27 27 26 26 26 25 24 24 25 26 26 25 24 24 23 24 25 26 26 25 24 24 25 26 26 25 25 25 26 26
5 5 5 11 16 18 18 18 18 17 17 16 16 17 17 15 16 17 16 16 17 17 17 18 19 20 21 21 21 22 22 23 23 23 23 24 24 23 23 23 23 23 23 24 24 24 25 26 27 28 28 28 28 27 27 28 28 28 27 26 26 26 26 26 27 27 26 25 25 26 27 27 26 26 26 26 26 26 27 28 28 27 27 28 29
4 4 4 6 12 16 20 21 20 17 17 16 16 17 19 18 18 19 18 17 18 18 17 18 19 20 21 22 22 22 23 23 23 24 25 25 25 24 24 24 24 24 24 24 25 25 26 26 27 28 28 27 27 27 27 28 28 28 28 27 27 27 27 27 28 28 28 27 27 27 28 28 27 26 27 28 27 27 28 29 29 28 28 29 30
4 5 5 5 7 11 16 20 20 19 18 18 19 19 19 19 19 20 19 18 18 18 19 19 20 21 21 22 22 22 23 24 24 25 25 25 25 25 24 24 24 24 24 24 25 26 27 27 27 27 27 26 26 26 27 28 28 28 28 27 27 27 26 27 29 29 28 28 29 29 28 28 27 27 27 28 28 28 29 29 30 30 30 30 30
5 6 7 7 7 9 11 13 17 20 21 21 22 21 19 19 20 20 19 19 19 19 19 20 21 21 22 22 23 23 23 24 25 24 24 25 25 25 25 25 25 25 25 25 26 26 26 27 27 26 26 26 26 27 28 28 29 28 28 28 27 27 26 28 29 29 29 29 29 29 29 28 28 28 28 28 29 30 30 30 31 31 31 31 31
7 8 9 8 7 8 8 9 11 17 22 24 25 23 21 21 21 22 21 20 20 19 19 20 20 21 22 23 24 24 25 25 25 25 25 26 27 26 26 26 25 25 26 26 26 26 26 27 27 27 27 27 28 28 29 29 29 29 29 29 28 27 27 29 31 31 30 29 29 29 29 29 29 29 29 29 30 29 28 29 31 31 31 31 31
8 9 10 11 9 6 6 7 9 12 16 21 25 26 24 23 24 25 25 24 23 22 21 21 21 22 23 24 24 25 26 26 26 25 26 27 27 27 27 26 25 25 26 27 28 28 27 28 28 28 28 29 30 30 30 30 30 29 29 29 27 26 28 30 32 32 30 29 30 30 30 30 30 29 29 31 31 29 28 29 31 32 32 32 30
9 10 11 12 12 7 4 6 9 10 10 12 17 21 23 25 27 28 28 27 26 25 24 24 24 25 25 25 26 26 27 27 26 26 27 27 27 27 27 26 26 26 27 28 29 29 29 29 29 29 30 30 31 32 32 31 30 30 30 29 27 27 29 32 33 33 31 30 30 31 31 31 31 30 30 31 30 30 31 32 32 32 33 32 31
10 11 12 12 12 9 6 5 7 10 11 11 12 15 18 23 27 29 30 30 29 29 28 27 27 28 28 27 28 28 28 27 27 27 28 28 28 28 28 28 28 28 28 29 29 29 29 30 30 30 31 32 32 32 32 32 31 30 30 28 28 29 31 32 33 33 32 31 31 32 32 32 32 31 30 30 30 31 32 33 33 34 34 34 33
10 12 13 13 13 12 9 6 7 9 10 11 11 12 14 16 19 22 25 27 29 30 31 31 31 31 31 30 30 30 30 29 29 30 31 31 31 31 30 30 30 30 30 30 30 30 30 30 31 31 32 32 32 32 33 33 33 32 30 29 30 31 32 33 33 33 32 31 32 32 32 32 32 32 31 30 31 32 33 33 34 35 36 36 35
10 11 12 13 14 14 12 10 9 9 9 10 11 12 13 14 15 17 18 21 23 25 27 29 31 33 34 34 34 33 33 33 33 33 34 34 35 34 33 33 33 33 33 32 32 32 32 32 32 32 33 32 31 32 33 34 33 32 31 31 32 33 33 33 34 33 32 31 31 32 32 32 32 32 32 31 31 32 33 33 34 35 36 37 37
11 11 12 13 14 14 14 12 11 11 11 11 11 12 13 15 16 17 18 19 20 21 22 24 25 28 31 34 35 36 36 36 36 36 36 37 38 38 37 36 36 36 36 35 35 35 35 34 34 33 33 33 32 33 33 34 34 33 32 33 34 33 33 33 33 34 33 32 31 31 32 33 33 33 32 32 32 33 32 33 35 37 37 37 37
12 12 12 13 13 14 14 14 13 13 13 13 13 13 14 15 15 16 17 18 20 21 22 23 23 23 25 27 30 33 35 37 38 39 39 40 40 40 40 40 39 39 38 38 37 37 37 36 36 35 35 35 34 34 34 34 35 34 34 35 35 33 34 35 34 35 35 33 32 31 31 33 35 33 32 34 35 34 33 34 36 37 37 37 38
13 13 13 14 14 14 14 14 14 14 14 15 15 15 15 16 16 17 17 18 19 21 22 23 24 24 24 25 26 28 30 32 34 37 39 40 40 41 41 42 42 41 41 40 39 38 37 37 37 37 37 37 37 36 34 34 35 35 35 36 36 35 35 36 36 36 36 34 33 32 32 34 35 34 34 36 38 37 36 37 38 38 38 39 40
15 15 15 15 15 15 15 15 16 16 16 16 16 16 17 17 18 18 19 19 20 21 22 23 24 24 25 26 27 28 29 30 31 33 35 36 36 37 38 40 40 41 41 41 40 39 38 39 39 39 39 38 38 38 36 35 35 35 35 36 37 36 36 37 37 37 36 35 34 33 34 36 36 36 36 37 38 38 38 38 39 40 40 41 42
16 16 16 16 16 17 17 16 16 17 17 18 18 18 18 19 19 20 20 21 22 23 23 24 24 25 26 27 27 29 30 31 32 32 33 34 34 35 35 36 37 38 39 39 38 38 38 38 39 41 41 41 40 39 38 37 36 36 36 37 38 38 38 38 39 38 36 36 36 36 36 37 37 36 37 38 38 39 39 39 40 42 43 44 45
16 17 17 18 18 18 18 18 17 17 18 19 19 20 20 20 20 21 22 23 23 24 24 25 26 26 27 28 28 30 31 32 33 33 34 35 35 35 36 36 36 37 37 37 36 37 37 37 37 38 40 42 43 42 41 40 39 39 39 39 40 40 41 41 41 39 37 37 38 38 38 38 38 38 38 39 39 40 40 40 42 43 44 45 45
17 17 18 18 19 19 19 19 18 18 18 19 20 20 21 21 21 22 23 24 24 25 25 26 27 27 28 29 30 30 31 33 34 34 35 36 36 37 37 38 38 39 38 38 38 37 37 37 37 37 37 39 42 43 42 43 43 42 41 41 42 43 44 44 42 40 38 39 40 41 41 40 39 39 40 41 42 41 41 42 43 44 44 45 46
17 18 18 18 19 20 20 19 19 20 20 19 19 19 20 21 22 22 22 23 24 25 25 26 27 27 28 29 30 31 32 33 34 35 36 36 37 37 38 39 40 40 40 40 39 37 36 37 37 37 37 38 39 40 41 43 44 44 43 44 45 45 46 45 42 41 41 42 43 44 43 42 40 41 43 43 43 43 42 42 44 45 46 47 47
18 18 18 18 19 20 20 20 20 20 20 20 19 19 19 20 21 21 22 22 23 23 24 25 26 26 27 28 29 31 32 33 35 36 37 37 37 38 38 39 39 40 41 41 40 38 37 37 37 37 38 39 39 39 39 40 41 42 43 45 46 46 45 45 44 44 44 45 45 45 45 45 43 43 44 45 44 44 44 45 46 46 46 47 46
19 19 19 19 19 20 20 20 20 20 20 20 20 20 19 20 20 20 21 21 22 23 23 24 25 25 26 28 29 30 32 33 34 36 37 38 38 39 39 39 39 39 40 41 40 39 39 38 38 38 38 39 39 39 39 40 40 41 42 44 45 45 44 44 44 45 45 44 45 46 47 47 46 45 45 45 46 47 47 46 46 45 45 47 47
19 19 20 20 19 20 20 20 20 20 20 20 20 20 20 21 21 21 21 21 22 23 24 24 24 25 26 27 28 30 31 33 34 35 36 37 39 39 40 41 41 41 40 40 40 40 39 39 39 39 39 39 39 39 40 40 41 42 42 43 44 44 43 42 43 44 44 44 44 44 44 45 46 46 46 46 47 48 48 47 47 46 46 47 49
19 20 20 20 20 21 21 20 20 20 20 21 21 21 21 21 22 22 22 22 23 23 24 24 25 26 27 27 28 30 31 32 33 35 35 37 38 39 40 41 42 42 42 41 40 40 39 39 39 39 39 39 40 40 40 40 41 42 43 43 44 44 43 42 42 43 44 44 43 42 42 44 45 44 45 46 46 47 48 48 47 46 46 48 50
20 20 21 21 21 21 21 21 21 20 20 21 22 22 22 23 23 24 24 24 24 25 25 25 25 26 27 28 29 30 31 31 32 33 34 35 36 38 40 41 42 42 42 42 41 40 39 39 39 39 39 40 40 41 41 41 42 43 43 43 43 43 43 44 43 43 44 45 44 43 44 45 45 44 45 46 45 46 48 48 46 46 46 47 47
21 21 22 22 22 22 21 21 21 21 21 22 22 23 23 24 24 25 25 25 25 25 26 26 27 27 27 28 29 30 30 30 31 31 31 32 33 35 38 40 41 42 42 42 41 40 39 39 39 39 39 39 40 41 41 41 42 43 43 43 43 43 43 44 44 43 42 43 43 43 45 46 46 46 46 46 46 47 48 46 45 45 45 45 47
22 22 22 22 22 22 21 21 21 21 22 23 23 23 24 25 25 25 26 26 26 26 27 27 27 27 26 27 28 29 29 29 29 28 29 30 31 33 35 37 38 39 40 40 40 39 38 38 38 38 38 39 39 40 40 40 41 42 42 43 43 42 43 44 44 43 42 42 42 42 43 45 45 46 47 48 48 47 47 46 45 46 47 47 47
22 22 22 22 22 21 21 21 21 21 23 24 24 24 25 25 26 26 26 27 26 25 25 25 25 26 26 27 27 27 27 27 27 27 28 28 29 29 30 32 33 34 35 37 37 37 37 37 37 38 38 38 38 39 39 39 40 40 40 41 42 42 42 43 44 44 44 44 44 44 44 45 44 44 46 48 48 47 48 49 47 45 44 43 42
22 22 22 22 21 21 21 20 20 20 22 23 23 24 24 25 26 26 26 25 24 22 22 22 24 25 25 25 25 24 24 25 25 25 25 25 25 25 25 27 29 30 31 32 34 35 36 36 36 37 37 37 37 38 38 38 39 40 39 39 40 40 41 42 43 43 44 45 45 46 46 45 44 43 44 45 44 45 47 47 44 42 41 39 37
22 21 21 21 21 21 21 20 20 20 20 21 22 22 22 23 24 24 23 21 20 20 20 21 22 23 23 22 22 22 22 23 23 22 22 22 23 23 23 23 24 26 28 30 31 33 33 34 35 36 36 36 36 37 37 38 39 39 38 38 38 40 41 43 44 43 43 43 44 45 45 44 41 40 40 40 40 41 42 43 42 41 38 35 32
22 21 21 20 21 21 21 21 21 20 20 20 20 20 21 21 21 21 19 18 16 16 18 19 20 20 20 20 20 20 21 22 21 20 20 21 22 23 22 22 22 22 24 27 29 30 32 32 33 34 34 35 35 35 35 36 37 37 38 37 37 38 40 42 42 41 40 40 42 44 45 44 42 42 42 42 41 40 39 38 36 33 30 27 25
21 21 21 20 20 21 21 21 21 20 20 20 20 20 20 20 19 18 16 15 14 15 17 19 19 19 19 19 19 20 21 20 19 18 19 20 21 21 21 20 20 19 18 20 22 24 26 28 29 29 30 30 31 31 30 31 32 33 34 35 35 36 38 39 39 37 38 39 41 42 42 42 42 42 41 40 37 34 31 28 26 25 25 25 26
21 20 20 20 20 20 21 21 20 20 19 19 19 19 19 19 18 17 15 15 15 15 17 18 18 18 18 18 19 21 21 20 18 18 18 19 19 20 20 19 19 18 15 14 15 17 19 20 21 22 23 24 25 26 26 26 27 28 30 31 32 33 35 36 36 35 37 38 39 38 36 35 34 34 33 31 30 27 25 24 25 26 27 29 29
21 20 20 20 20 20 20 20 20 19 19 18 19 19 19 18 18 16 15 14 15 15 15 17 17 17 17 18 20 22 22 21 19 19 19 19 18 19 19 19 19 18 16 14 13 13 14 15 15 16 18 18 19 19 20 20 21 23 25 26 26 25 25 26 26 26 27 28 28 28 27 26 26 26 26 26 25 25 25 26 27 27 28 28 29
21 20 20 20 20 20 19 19 18 18 18 18 18 18 18 17 17 16 14 14 13 13 14 16 17 17 18 20 22 21 20 19 19 19 20 20 20 20 19 19 19 19 18 16 14 13 13 13 13 14 14 15 15 15 15 16 16 17 18 18 18 18 17 17 17 18 19 19 19 20 20 21 21 22 23 23 24 24 25 26 26 27 28 29 30
22 21 20 19 19 19 19 19 18 17 17 17 17 17 17 16 16 15 14 14 14 14 14 15 16 17 17 18 18 17 17 18 18 19 20 21 21 20 19 18 19 19 18 17 16 14 14 13 13 13 13 13 13 13 13 14 14 14 14 15 15 15 15 15 15 16 16 17 17 18 19 19 20 21 21 22 23 24 25 26 26 27 29 30 31
22 21 21 20 20 19 19 19 18 17 16 16 16 16 16 16 15 14 13 13 13 14 15 15 16 17 17 17 17 17 17 17 18 19 20 20 19 18 16 16 16 17 17 16 16 16 15 15 14 13 13 13 14 14 14 14 14 15 15 16 16 16 16 16 16 16 17 17 18 19 19 20 21 22 22 23 24 25 26 27 28 29 30 31 32
23 22 22 21 20 20 20 20 19 18 16 16 16 16 16 16 15 14 14 13 13 14 15 16 16 17 18 18 18 18 17 17 18 18 19 19 17 16 14 14 14 15 15 16 16 17 17 17 16 15 15 15 15 16 16 16 16 16 16 17 17 17 17 16 16 17 17 18 18 19 20 21 22 23 24 25 26 27 28 29 31 32 33 34 35
24 24 23 22 21 21 21 20 20 20 18 16 15 16 16 16 16 15 15 14 14 14 14 15 16 16 17 17 17 17 18 18 18 18 19 19 18 17 16 16 16 16 17 18 18 18 19 19 19 19 19 19 18 17 17 17 17 17 17 17 17 17 17 18 18 18 19 20 20 21 22 23 24 25 26 28 29 30 31 32 33 34 35 35 36
25 25 24 23 22 21 21 21 21 21 20 19 17 16 16 16 16 16 16 16 16 16 16 16 16 17 17 16 16 17 17 17 17 18 18 18 19 19 20 20 20 20 20 20 20 20 20 20 20 20 20 20 19 18 18 17 17 17 17 17 17 17 18 19 20 21 22 23 24 24 25 26 27 28 30 31 32 33 34 35 36 37 37 37 38
Wind_Direction
232 231 230 225 220 217 217 218 222 227 228 226 226 227 222 217 221 224 222 219 218 218 219 221 221 220 220 221 222 223 228 234 235 231 226 223 222 222 221 221 223 226 228 229 229 229 229 230 231 232 233 234 236 238 240 241 243 244 243 244 244 244 245 246 248 250 253 261 267 270 271 274 280 286 289 291 291 292 294 300 306 308 313 318 319
226 223 219 214 212 213 213 217 222 225 228 228 226 226 224 220 221 221 220 219 215 214 218 219 216 216 218 219 220 222 227 233 234 229 224 222 222 223 222 221 223 226 228 229 231 232 232 232 233 234 234 237 239 240 241 242 245 246 246 246 245 245 248 251 253 256 258 262 269 272 273 273 276 282 286 289 292 292 292 297 299 296 300 307 310
219 211 208 208 208 210 214 218 220 223 226 227 225 225 224 223 221 220 220 215 211 213 219 218 215 215 218 220 220 223 228 233 233 227 223 221 221 223 224 224 225 226 229 231 233 234 235 235 236 235 235 238 241 242 242 243 245 247 249 250 248 247 250 254 256 257 259 262 268 272 276 276 274 275 280 286 291 292 291 294 297 299 301 301 299
212 205 204 204 203 206 212 215 219 222 224 223 222 222 223 223 221 221 221 215 212 216 218 216 216 217 219 222 223 224 229 232 231 225 222 220 220 222 223 224 226 228 230 232 234 236 237 238 239 238 236 238 241 243 244 244 245 247 250 253 253 249 250 258 263 262 261 263 268 273 277 278 277 276 277 282 287 288 288 290 296 302 305 304 299
213 208 204 202 203 205 207 209 214 218 221 220 218 217 218 218 219 219 219 217 216 219 218 216 216 217 221 225 226 226 228 230 228 224 223 221 221 222 223 224 227 229 230 232 235 238 239 240 241 240 238 239 242 244 245 245 246 248 251 254 256 253 249 252 260 264 265 265 267 271 273 274 277 279 279 280 283 284 286 289 293 297 301 304 302
213 210 204 202 206 209 208 209 211 214 217 216 214 215 214 214 219 219 216 215 214 215 217 216 215 217 221 225 227 227 228 229 227 224 222 222 222 223 224 225 227 229 230 232 235 238 241 241 242 242 241 241 243 244 245 245 246 248 251 254 257 257 254 249 252 259 264 265 267 269 271 274 277 279 279 279 281 284 287 290 293 294 297 301 301
208 205 204 205 211 213 210 209 209 210 213 209 209 214 212 213 220 218 215 214 211 211 215 213 214 217 220 224 227 228 227 228 226 224 223 224 225 225 226 227 227 228 231 233 235 239 242 243 243 243 242 243 244 245 245 245 246 247 250 253 256 258 258 255 254 258 261 265 268 270 272 275 278 279 280 280 282 285 288 291 293 293 294 297 298
205 204 204 205 214 216 209 207 208 208 207 204 207 212 212 215 218 214 215 216 213 216 219 213 214 218 219 221 226 227 226 225 223 223 224 226 227 227 227 229 229 229 232 235 238 240 242 243 243 242 243 244 245 246 245 245 246 248 249 252 254 257 258 258 258 259 262 264 267 270 272 273 274 277 280 282 284 286 288 290 291 291 291 293 294
217 214 209 204 210 214 207 203 205 205 206 205 207 212 212 212 214 213 216 217 216 219 220 215 216 219 219 221 226 228 225 222 220 221 223 226 228 228 228 230 230 231 232 235 238 241 242 242 242 242 242 243 245 246 246 245 246 247 249 250 253 256 258 259 259 261 263 264 265 269 271 272 274 275 277 280 282 284 286 288 289 289 288 289 292
226 222 214 202 204 213 213 206 204 207 210 208 208 212 211 209 212 216 215 214 216 218 218 217 219 220 222 223 225 226 222 217 217 219 220 223 225 225 228 230 231 232 233 234 236 239 240 240 241 241 241 242 244 246 246 244 244 246 249 250 251 254 256 258 260 261 264 265 265 267 270 273 276 276 274 275 278 281 283 283 282 283 284 286 290
239 228 222 210 207 213 215 212 210 210 209 208 210 213 211 210 213 214 213 214 219 221 218 218 222 224 225 226 223 221 217 214 215 217 220 224 226 226 228 232 234 235 234 234 236 237 239 239 239 240 240 242 244 245 245 244 244 245 248 249 250 252 255 258 260 260 261 262 263 267 270 273 276 276 276 277 279 280 279 278 278 281 282 285 288
295 244 227 218 214 215 215 212 212 210 207 208 211 211 212 215 215 213 216 222 226 224 220 220 224 226 226 224 220 216 213 212 216 220 223 227 229 229 230 233 237 238 237 238 238 238 239 240 240 241 241 242 243 244 244 244 244 244 246 248 249 251 254 257 258 258 258 259 262 265 267 267 269 273 277 279 280 279 278 278 279 281 282 285 286
328 279 233 220 217 219 218 213 209 208 209 212 215 212 211 216 218 216 218 224 226 224 220 219 220 221 220 217 213 210 210 213 218 223 226 228 231 233 234 235 237 239 239 240 240 240 240 242 244 244 243 243 243 244 244 245 245 244 245 247 248 250 251 254 256 257 258 259 261 263 263 264 266 271 275 277 277 278 278 279 279 280 281 282 283
324 316 266 232 225 225 226 223 218 212 212 217 222 222 218 216 220 223 220 221 222 220 217 214 213 212 211 210 209 209 211 215 220 224 227 229 232 234 236 237 238 238 240 241 241 242 241 241 243 244 244 244 244 244 245 245 246 246 246 247 248 250 251 254 257 259 259 260 261 263 264 266 267 271 274 274 275 276 277 278 279 280 280 279 280
292 302 298 256 238 234 231 230 227 218 213 216 220 225 225 221 219 221 218 216 218 216 213 213 213 212 212 212 214 216 217 219 221 224 226 230 232 234 236 237 238 238 239 241 242 244 243 243 243 244 245 246 245 246 247 247 248 249 250 250 251 253 255 257 258 260 262 262 262 263 265 268 270 272 274 275 275 276 277 279 279 278 278 278 279
283 276 279 278 268 254 241 235 230 221 216 218 218 221 229 231 227 224 220 218 219 218 215 215 216 218 219 221 223 224 225 225 226 226 228 232 235 236 237 238 239 240 239 240 241 244 245 246 246 247 247 248 248 248 249 250 251 252 252 253 254 256 258 260 262 263 264 265 266 266 267 270 272 274 275 276 278 278 278 279 278 277 277 277 278
293 277 269 271 276 275 267 254 239 228 222 223 222 222 228 236 236 234 230 226 226 225 223 222 222 222 223 225 227 228 230 231 231 231 233 235 238 240 240 239 240 241 241 241 242 244 246 248 249 250 250 251 251 251 251 252 253 253 254 255 256 258 261 263 265 266 267 268 269 270 271 271 272 273 274 275 276 276 276 277 276 276 277 277 278
292 284 278 272 262 258 266 268 253 238 231 230 231 228 227 233 238 239 238 234 231 229 228 228 228 228 228 229 229 230 231 232 232 233 233 235 237 241 244 244 243 244 246 246 246 246 247 248 249 250 251 251 252 252 252 252 253 254 255 256 257 260 262 264 265 266 268 270 271 272 272 272 272 273 274 273 272 273 276 277 277 278 279 278 280
283 282 281 277 269 252 244 255 260 250 238 234 234 232 227 230 237 240 240 238 235 232 230 230 231 232 233 233 232 233 234 234 235 235 237 239 240 243 247 248 248 249 250 251 251 249 248 249 250 250 251 251 252 252 252 253 253 254 256 257 259 260 261 262 264 266 267 270 271 271 271 271 272 272 273 274 273 274 279 282 280 280 280 281 283
275 274 272 275 279 278 263 264 271 272 266 253 243 238 233 233 237 240 242 242 241 239 237 234 233 234 235 235 235 235 236 236 237 238 240 243 245 246 249 250 249 249 249 251 253 254 253 253 253 253 253 253 254 254 255 256 256 256 257 259 260 260 260 261 264 267 268 268 268 269 270 272 273 272 273 277 278 277 277 278 278 279 281 283 284
271 273 274 278 282 281 276 273 271 269 271 268 258 249 243 240 240 242 244 246 246 246 244 241 239 240 241 241 241 241 241 241 242 242 242 243 245 246 249 250 249 248 247 248 251 253 255 256 256 256 256 255 255 256 257 258 259 258 259 260 261 260 260 262 264 267 268 269 269 271 273 276 277 277 276 278 279 277 275 275 279 283 284 285 285
270 273 276 279 282 281 279 270 257 254 256 259 258 255 252 249 247 247 247 249 249 248 248 247 246 245 245 245 245 246 246 246 247 247 247 247 246 247 248 250 250 249 248 247 248 250 252 253 255 256 256 256 257 258 259 259 259 259 259 259 259 259 259 261 263 265 266 267 270 273 274 275 276 276 275 274 274 276 277 279 283 285 284 284 284
274 274 276 277 279 281 281 276 269 265 263 262 262 261 258 257 256 254 253 254 255 254 253 251 249 248 247 247 248 249 249 250 251 251 251 251 250 250 250 251 252 253 252 250 249 249 250 251 252 254 256 257 259 260 261 261 260 260 259 258 257 257 257 258 261 263 264 264 266 269 270 271 271 271 271 271 272 274 277 279 281 281 282 282 283
280 277 276 276 278 280 281 279 277 274 270 265 262 261 262 260 258 256 255 255 257 258 259 258 256 253 250 249 248 249 250 250 251 253 254 254 254 254 254 253 254 255 255 253 252 251 251 252 253 255 256 257 258 258 260 262 262 262 260 259 258 259 260 261 261 263 263 263 264 266 268 269 269 269 270 272 272 272 274 277 278 278 280 283 285
280 280 279 278 278 279 280 280 278 273 271 269 265 262 261 261 261 260 259 259 259 259 259 259 259 258 257 255 253 251 250 250 250 251 253 254 255 257 257 256 256 255 255 254 253 253 252 253 255 256 257 258 257 257 258 261 263 264 263 262 261 260 261 262 262 262 263 263 263 264 264 265 267 269 270 271 271 270 271 274 274 274 277 282 284
281 281 280 280 278 277 279 280 278 275 271 270 268 265 262 261 261 260 260 260 260 259 259 259 258 258 257 257 256 255 254 253 251 251 251 252 254 256 257 257 257 257 257 257 256 254 254 254 255 256 257 258 258 258 258 258 261 263 264 264 264 261 260 260 261 261 262 263 262 262 263 263 265 267 268 269 271 273 274 276 276 278 281 284 286
283 281 281 281 281 280 278 278 277 276 274 271 269 266 264 262 261 259 258 258 257 257 257 258 258 258 257 256 256 256 256 255 254 253 253 254 255 256 256 256 257 257 258 258 258 256 255 255 255 255 255 256 257 257 257 257 258 259 261 263 263 262 261 259 260 261 263 264 264 263 263 263 265 268 269 271 273 276 278 279 281 284 286 286 288
284 283 283 283 282 282 280 278 276 275 275 274 271 268 266 265 263 261 259 258 257 257 257 257 256 256 256 256 257 257 257 257 257 257 257 257 257 258 258 258 259 259 259 259 258 258 258 258 258 257 255 254 255 256 256 256 256 257 259 260 261 262 261 260 259 260 262 263 263 263 263 264 266 267 269 272 274 275 277 280 281 283 285 287 288
285 285 284 283 282 281 279 278 276 274 272 272 272 270 268 267 265 264 263 261 259 258 257 257 257 256 255 255 255 255 256 258 259 260 260 260 260 261 261 261 261 261 261 260 259 258 258 259 261 262 258 253 252 253 254 255 255 256 257 259 261 262 262 261 261 262 262 263 264 264 264 264 266 267 269 271 272 274 276 278 278 280 283 285 286
285 284 283 282 282 281 279 278 276 273 271 269 270 271 271 270 268 266 265 263 263 261 260 259 258 258 257 256 255 254 254 255 257 258 259 259 260 260 261 261 262 261 261 260 259 259 259 259 260 262 260 255 252 253 253 254 254 254 255 257 259 260 261 262 263 265 267 267 267 267 266 266 267 268 269 270 271 273 276 277 278 281 283 284 285
285 284 283 283 281 280 280 280 278 276 274 272 270 270 271 271 270 267 265 264 263 263 262 262 261 260 260 259 259 258 257 256 256 256 256 256 256 256 256 257 259 260 261 261 261 261 261 260 259 260 259 258 256 255 254 253 254 254 255 255 257 258 260 262 264 265 266 267 268 269 269 269 268 267 268 269 271 273 275 277 279 280 282 284 286
287 287 287 286 284 282 281 280 279 278 278 277 275 274 273 272 272 271 269 267 265 263 261 261 261 262 262 262 262 261 260 260 259 259 258 257 256 256 255 255 256 257 259 260 261 261 260 260 259 258 258 258 258 258 257 256 255 255 255 254 255 256 259 261 263 263 263 265 268 269 270 270 269 268 269 271 272 274 275 276 277 279 281 284 285
289 290 290 289 288 286 284 282 280 280 279 279 279 279 278 277 275 273 271 270 268 267 265 263 262 262 263 263 263 263 263 263 262 262 262 261 260 259 257 256 255 255 256 258 260 260 259 259 259 258 258 258 258 259 259 258 258 257 256 256 257 258 259 261 262 262 264 266 268 268 269 270 270 270 272 273 274 275 275 276 277 278 280 281 283
289 290 291 292 292 289 287 285 282 281 281 281 281 281 281 280 279 276 274 271 269 268 268 268 267 266 265 265 265 265 265 266 266 265 265 264 263 262 260 259 257 255 255 256 258 258 259 259 259 259 259 259 259 259 258 258 258 258 258 258 259 260 262 263 263 264 265 266 267 268 271 272 272 273 274 275 275 276 277 277 278 279 280 281 281
289 289 290 291 293 292 290 288 285 283 283 284 284 284 283 282 282 280 278 276 273 271 270 270 269 268 268 268 268 268 268 268 268 268 268 267 267 265 263 261 259 257 256 256 256 257 258 259 259 259 259 259 259 260 260 260 260 259 259 259 260 262 263 263 264 265 266 267 267 269 271 272 273 274 274 275 276 276 277 277 278 279 281 281 281
289 289 290 291 293 293 292 289 287 286 286 287 287 287 287 286 285 284 283 280 278 276 274 273 272 271 270 270 271 272 273 273 272 272 271 270 269 268 266 264 262 259 257 256 255 256 256 257 258 258 258 258 258 259 259 259 260 261 261 261 261 263 263 264 264 264 265 267 268 269 271 272 272 272 273 274 275 275 276 278 280 280 280 280 283
288 288 289 290 292 293 293 290 288 288 288 289 290 290 289 288 286 285 284 281 279 279 278 277 275 274 274 275 277 278 278 278 277 276 275 273 270 268 266 265 263 261 259 257 255 255 255 256 257 257 258 258 259 259 259 259 259 261 262 263 263 264 265 266 266 265 266 268 269 269 271 272 272 272 273 274 274 274 275 278 281 283 282 283 285
289 288 287 289 291 294 294 292 292 291 291 292 292 291 289 287 285 284 283 282 282 281 280 277 275 274 275 276 278 279 279 280 281 281 280 278 275 271 268 266 264 262 261 259 257 255 255 255 256 257 258 259 259 260 260 260 260 260 262 263 264 264 266 267 266 265 266 267 268 268 269 271 273 274 275 275 275 275 276 278 282 286 285 282 279
289 288 287 287 289 292 293 292 292 293 293 293 293 292 290 287 285 285 286 286 283 281 277 273 272 273 274 275 276 276 279 282 284 285 286 285 282 279 276 272 268 265 262 261 260 258 257 256 257 258 259 260 261 262 263 263 263 263 263 264 265 266 267 267 266 265 265 266 267 266 267 269 271 274 276 277 277 279 280 280 282 283 282 277 272
289 288 287 287 289 291 292 292 292 292 292 292 292 290 289 287 287 288 289 287 282 277 274 273 274 276 276 276 276 277 280 283 286 289 291 293 292 290 285 279 273 268 265 262 261 261 261 261 261 262 262 263 264 265 266 266 266 266 266 266 267 267 266 265 265 266 266 265 265 265 265 268 270 273 275 277 279 281 282 281 279 278 278 277 273
288 288 287 288 290 292 293 294 294 293 293 292 292 291 290 289 289 291 290 286 279 273 271 274 277 279 277 275 277 280 282 284 287 289 293 298 300 299 296 288 278 270 265 262 261 260 262 263 265 266 267 268 269 269 269 269 270 270 268 267 267 268 268 265 264 264 264 263 263 265 266 268 270 271 274 277 279 280 280 278 276 275 274 272 269
288 288 287 288 290 292 294 295 296 296 297 297 297 296 294 292 292 292 289 283 276 270 270 273 275 274 273 274 277 280 283 285 286 287 291 296 300 302 306 304 295 281 270 265 262 261 261 262 263 265 267 269 269 269 270 269 269 269 268 267 267 270 270 266 260 257 258 261 264 266 268 268 267 268 272 277 279 278 275 273 271 268 266 265 267
285 285 285 287 289 291 293 295 297 299 300 301 300 299 296 295 296 294 287 278 271 269 272 274 272 269 269 273 277 281 284 287 288 290 293 296 297 300 305 308 306 297 284 272 267 265 264 264 265 267 268 269 270 270 270 270 270 270 270 269 268 269 270 267 262 261 264 267 269 270 270 270 269 269 270 271 269 265 263 262 263 266 270 275 280
282 282 282 284 286 289 292 295 298 300 300 300 298 297 295 295 297 295 286 275 269 270 274 275 273 271 271 274 279 284 286 286 286 289 291 292 295 300 303 303 303 300 293 283 275 271 268 267 267 267 267 268 269 270 272 273 275 276 276 274 270 267 267 268 269 270 272 272 271 269 268 266 265 264 262 260 258 259 262 268 274 280 284 286 288
279 279 280 281 282 286 290 294 297 298 298 297 296 296 294 293 294 295 289 276 269 269 273 276 275 274 274 276 282 286 287 283 281 283 286 291 295 300 301 300 299 297 295 292 287 281 276 273 271 270 271 271 273 276 277 278 279 280 278 274 269 264 263 265 268 271 273 273 272 270 267 265 264 264 266 269 273 278 282 285 287 289 290 291 291
277 276 276 277 279 282 286 290 294 296 296 295 294 294 292 291 291 294 294 286 277 274 275 276 276 276 277 280 283 285 284 281 278 279 284 290 295 298 297 295 292 290 289 288 286 285 284 283 282 282 283 283 284 285 285 285 285 285 284 281 278 276 275 275 276 277 279 280 279 278 277 276 277 278 280 283 285 288 290 292 293 293 294 293 293
275 275 274 274 276 279 283 287 292 294 294 293 292 291 291 291 291 294 297 294 288 281 276 274 273 274 276 280 283 282 279 278 277 279 283 289 293 295 294 291 288 288 289 289 287 285 284 282 281 282 283 284 284 285 286 287 289 291 292 293 292 291 290 289 288 288 288 288 288 289 289 289 289 289 290 290 291 292 293 294 294 293 293 293 293
274 274 273 273 276 278 281 285 291 295 295 294 292 291 292 293 293 294 295 294 289 282 274 269 268 270 272 276 280 280 279 279 280 282 286 288 289 290 290 288 288 290 292 292 291 288 285 282 281 281 283 284 286 287 289 291 294 296 297 297 297 297 297 296 296 295 295 294 294 295 295 296 296 296 297 296 296 296 295 294 293 292 291 291 291
273 273 272 273 275 277 279 284 289 293 294 293 291 291 292 293 293 293 292 291 288 285 281 278 276 276 278 280 281 281 281 281 281 283 285 285 284 284 285 286 286 287 287 287 286 285 284 283 283 284 286 288 289 291 293 295 295 296 296 297 297 298 298 298 298 298 297 297 297 297 298 298 297 297 297 296 294 293 292 291 290 290 290 290 290
271 271 271 272 274 276 280 284 288 291 294 294 291 289 289 290 291 291 290 290 290 290 289 288 287 287 287 288 287 285 283 282 282 283 284 284 285 286 289 290 291 291 289 289 288 288 288 288 288 288 290 290 291 295 298 299 299 299 298 298 299 300 300 301 301 301 300 299 299 298 297 296 295 294 293 292 290 289 289 289 288 288 288 289 289
266 267 269 271 273 277 281 285 287 290 294 296 295 291 288 289 291 292 292 293 293 292 292 292 291 291 290 290 288 285 282 280 279 280 282 284 286 289 291 293 293 293 292 292 293 293 293 293 294 294 293 293 294 296 297 298 299 300 300 298 298 298 298 298 298 298 297 297 297 296 295 294 293 293 292 290 290 290 291 291 290 289 289 289 289
Height
5849 5850 5851 5852 5854 5855 5857 5859 5860 5861 5863 5864 5864 5865 5866 5869 5871 5873 5875 5875 5876 5877 5880 5882 5884 5886 5889 5891 5893 5894 5896 5898 5899 5900 5902 5904 5906 5908 5910 5912 5913 5915 5916 5917 5918 5920 5921 5922 5923 5924 5925 5925 5926 5926 5926 5926 5927 5927 5928 5929 5930 5931 5932 5932 5932 5934 5935 5935 5935 5935 5935 5936 5936 5936 5937 5937 5936 5936 5935 5935 5935 5935 5935 5935 5935
5846 5848 5849 5850 5852 5854 5855 5856 5858 5859 5861 5862 5862 5863 5865 5867 5869 5871 5873 5873 5874 5876 5879 5881 5883 5885 5887 5889 5890 5892 5894 5896 5897 5899 5900 5902 5904 5906 5908 5910 5912 5913 5914 5916 5917 5918 5919 5921 5922 5922 5923 5924 5924 5925 5925 5925 5925 5926 5927 5927 5929 5930 5930 5931 5931 5932 5934 5934 5934 5934 5934 5935 5935 5935 5935 5935 5934 5934 5933 5933 5934 5933 5932 5933 5933
5843 5845 5847 5849 5851 5852 5853 5855 5856 5858 5859 5859 5860 5861 5863 5865 5867 5869 5871 5872 5873 5875 5877 5879 5881 5883 5885 5887 5889 5891 5892 5894 5895 5897 5899 5900 5902 5904 5906 5908 5910 5911 5913 5914 5915 5916 5918 5919 5920 5921 5922 5922 5923 5923 5924 5924 5924 5924 5925 5926 5927 5928 5929 5929 5930 5931 5932 5932 5932 5933 5933 5933 5934 5934 5933 5933 5932 5932 5931 5932 5933 5932 5931 5931 5931
5841 5843 5845 5847 5849 5850 5852 5854 5855 5856 5857 5858 5859 5860 5861 5863 5864 5866 5868 5870 5871 5873 5875 5877 5879 5881 5883 5885 5887 5889 5891 5892 5894 5895 5897 5898 5900 5902 5904 5906 5908 5910 5911 5912 5913 5914 5916 5917 5918 5919 5920 5921 5921 5922 5922 5922 5922 5923 5923 5924 5925 5927 5928 5928 5928 5928 5929 5929 5930 5931 5931 5931 5932 5932 5931 5931 5930 5930 5930 5930 5931 5930 5929 5929 5929
5840 5842 5843 5845 5847 5849 5851 5853 5854 5855 5856 5857 5857 5858 5860 5862 5863 5864 5866 5868 5869 5871 5873 5875 5877 5879 5880 5882 5884 5886 5888 5890 5891 5893 5895 5897 5899 5900 5902 5904 5906 5908 5909 5910 5911 5912 5914 5915 5916 5917 5918 5919 5919 5920 5921 5921 5921 5921 5921 5922 5923 5924 5926 5927 5926 5926 5926 5927 5928 5929 5929 5929 5930 5930 5929 5928 5928 5927 5928 5928 5928 5928 5927 5927 5927
5839 5841 5842 5844 5845 5847 5849 5851 5853 5854 5854 5855 5856 5857 5859 5861 5862 5863 5865 5867 5868 5869 5871 5873 5875 5876 5878 5880 5882 5884 5886 5887 5889 5891 5893 5895 5897 5899 5900 5902 5904 5905 5907 5908 5909 5910 5911 5912 5913 5914 5916 5917 5917 5918 5919 5919 5919 5919 5919 5920 5921 5922 5923 5925 5925 5924 5924 5925 5926 5927 5927 5927 5928 5928 5927 5926 5926 5926 5926 5926 5926 5926 5925 5925 5925
5839 5841 5842 5844 5846 5847 5848 5849 5850 5851 5852 5853 5854 5856 5858 5859 5861 5862 5864 5865 5866 5868 5870 5871 5872 5874 5876 5877 5879 5881 5883 5885 5887 5889 5891 5893 5895 5897 5899 5900 5902 5903 5904 5906 5907 5908 5909 5910 5911 5912 5913 5914 5915 5916 5916 5917 5917 5917 5917 5918 5918 5919 5920 5922 5923 5922 5922 5923 5924 5924 5925 5925 5925 5925 5925 5924 5924 5924 5924 5924 5924 5924 5923 5923 5923
5840 5841 5841 5843 5844 5845 5846 5847 5848 5849 5850 5851 5853 5855 5856 5858 5859 5861 5863 5864 5866 5867 5868 5869 5871 5872 5874 5876 5877 5879 5881 5883 5885 5887 5889 5891 5893 5895 5897 5898 5900 5901 5902 5903 5904 5905 5907 5908 5909 5910 5911 5912 5913 5913 5914 5914 5915 5915 5915 5915 5916 5917 5917 5918 5919 5920 5920 5921 5921 5921 5921 5922 5922 5922 5923 5922 5922 5922 5922 5922 5922 5922 5921 5920 5920
5839 5840 5840 5841 5842 5843 5844 5845 5847 5848 5849 5851 5852 5853 5855 5856 5858 5860 5862 5863 5865 5866 5867 5868 5870 5871 5872 5874 5875 5877 5879 5881 5883 5885 5887 5889 5891 5893 5894 5896 5897 5898 5899 5900 5901 5902 5904 5905 5906 5907 5908 5909 5910 5911 5911 5912 5912 5912 5912 5913 5913 5914 5914 5915 5916 5916 5917 5918 5918 5918 5918 5918 5919 5920 5921 5920 5919 5919 5920 5919 5919 5918 5918 5917 5917
5838 5839 5840 5841 5842 5843 5844 5845 5846 5847 5848 5850 5851 5851 5853 5855 5857 5859 5861 5862 5863 5864 5865 5866 5867 5869 5870 5872 5873 5875 5877 5879 5881 5883 5884 5886 5888 5890 5891 5893 5894 5895 5896 5897 5898 5899 5900 5902 5903 5904 5905 5906 5907 5908 5909 5909 5909 5909 5909 5910 5911 5911 5911 5912 5913 5913 5914 5914 5915 5916 5916 5916 5916 5917 5916 5916 5916 5916 5917 5916 5916 5915 5915 5915 5915
5837 5838 5839 5840 5842 5843 5844 5844 5845 5846 5847 5849 5850 5851 5851 5853 5855 5856 5858 5860 5860 5861 5863 5864 5865 5866 5868 5869 5871 5872 5874 5876 5878 5880 5882 5883 5885 5887 5888 5889 5891 5892 5893 5894 5895 5896 5897 5898 5900 5901 5902 5903 5904 5905 5906 5906 5906 5906 5906 5907 5908 5908 5909 5909 5909 5910 5911 5911 5911 5912 5913 5914 5913 5912 5912 5913 5913 5913 5913 5912 5912 5912 5912 5912 5912
5834 5835 5837 5838 5840 5841 5842 5843 5844 5845 5845 5847 5849 5850 5850 5851 5852 5854 5856 5858 5858 5859 5860 5861 5862 5864 5865 5867 5869 5870 5872 5874 5876 5877 5879 5880 5882 5884 5885 5886 5888 5889 5890 5891 5892 5893 5894 5895 5896 5898 5899 5900 5901 5902 5902 5902 5902 5902 5903 5903 5905 5906 5906 5906 5906 5906 5907 5908 5909 5910 5910 5910 5909 5909 5910 5910 5909 5909 5908 5908 5909 5909 5909 5909 5908
5833 5833 5835 5836 5837 5838 5840 5842 5843 5844 5845 5847 5848 5849 5849 5849 5850 5852 5854 5855 5856 5856 5857 5859 5860 5862 5864 5865 5867 5868 5870 5871 5873 5875 5876 5878 5879 5881 5882 5883 5885 5886 5888 5888 5889 5890 5891 5892 5893 5895 5896 5897 5898 5898 5899 5899 5898 5899 5899 5900 5901 5902 5903 5902 5902 5903 5904 5905 5905 5906 5906 5906 5906 5906 5906 5906 5905 5905 5904 5905 5905 5905 5905 5905 5904
5833 5832 5833 5834 5835 5836 5837 5839 5841 5843 5845 5846 5847 5848 5848 5849 5849 5850 5852 5853 5855 5855 5856 5857 5858 5860 5862 5863 5865 5866 5867 5869 5870 5872 5873 5874 5876 5877 5879 5880 5882 5883 5884 5885 5886 5887 5888 5889 5891 5892 5893 5893 5894 5894 5895 5895 5895 5895 5896 5897 5898 5899 5899 5899 5899 5899 5900 5901 5902 5903 5902 5902 5903 5903 5902 5902 5902 5901 5901 5901 5901 5901 5901 5900 5900
5833 5832 5832 5832 5833 5834 5835 5836 5838 5840 5842 5843 5844 5845 5847 5848 5848 5847 5848 5850 5852 5854 5855 5857 5858 5859 5861 5862 5863 5864 5865 5867 5868 5869 5870 5871 5872 5874 5875 5877 5879 5880 5882 5882 5883 5884 5886 5887 5888 5889 5889 5889 5890 5890 5891 5891 5892 5893 5894 5895 5895 5896 5896 5897 5896 5896 5896 5897 5898 5899 5899 5899 5899 5900 5900 5899 5899 5898 5898 5897 5897 5897 5896 5895 5895
5833 5832 5832 5832 5832 5832 5833 5835 5837 5838 5840 5841 5842 5842 5843 5846 5847 5847 5847 5849 5851 5853 5854 5856 5858 5859 5860 5861 5862 5864 5865 5866 5866 5867 5868 5869 5870 5871 5873 5875 5876 5877 5878 5880 5881 5882 5883 5884 5885 5885 5885 5886 5886 5887 5887 5888 5889 5890 5891 5892 5892 5893 5894 5893 5893 5893 5893 5893 5894 5895 5896 5896 5896 5896 5896 5896 5896 5895 5895 5894 5893 5892 5892 5892 5892
5832 5832 5832 5833 5833 5832 5833 5834 5835 5836 5838 5840 5841 5840 5841 5843 5845 5847 5848 5849 5850 5851 5853 5855 5856 5857 5858 5859 5860 5862 5863 5865 5866 5867 5868 5868 5869 5869 5870 5871 5873 5874 5875 5876 5877 5878 5879 5880 5881 5881 5881 5882 5883 5883 5883 5884 5885 5886 5887 5888 5889 5890 5890 5890 5889 5889 5889 5890 5891 5891 5892 5892 5892 5892 5892 5892 5892 5891 5891 5890 5889 5888 5888 5888 5888
5831 5831 5831 5831 5833 5835 5835 5834 5834 5835 5837 5839 5840 5840 5839 5841 5843 5845 5847 5848 5848 5849 5851 5852 5854 5856 5856 5857 5859 5860 5861 5862 5864 5865 5865 5866 5867 5867 5868 5869 5871 5872 5872 5873 5874 5875 5875 5876 5876 5877 5878 5878 5879 5879 5880 5880 5881 5883 5883 5884 5885 5886 5886 5885 5884 5885 5886 5886 5887 5887 5888 5888 5888 5888 5888 5887 5887 5887 5888 5888 5887 5886 5885 5884 5884
5831 5830 5829 5828 5830 5834 5836 5835 5834 5835 5835 5836 5838 5838 5838 5839 5840 5842 5844 5846 5847 5848 5849 5850 5852 5853 5854 5855 5856 5858 5858 5860 5861 5862 5863 5863 5864 5865 5865 5867 5869 5870 5871 5871 5871 5872 5872 5873 5873 5874 5874 5875 5875 5875 5875 5876 5877 5879 5879 5880 5881 5882 5882 5880 5880 5880 5882 5882 5882 5883 5883 5883 5883 5884 5884 5883 5883 5885 5885 5884 5883 5882 5881 5880 5881
5830 5829 5827 5826 5826 5830 5833 5834 5833 5832 5832 5833 5834 5836 5837 5838 5838 5839 5841 5842 5844 5846 5847 5848 5849 5850 5851 5852 5853 5855 5856 5856 5858 5859 5860 5860 5861 5862 5862 5864 5866 5867 5868 5868 5868 5869 5869 5870 5870 5871 5871 5871 5871 5871 5871 5872 5873 5874 5875 5876 5878 5878 5877 5876 5875 5876 5877 5878 5878 5878 5879 5879 5879 5880 5880 5880 5880 5881 5880 5878 5877 5877 5877 5877 5877
5828 5827 5826 5825 5825 5828 5831 5833 5833 5832 5832 5832 5833 5834 5835 5836 5837 5837 5838 5839 5840 5842 5843 5845 5846 5846 5847 5849 5850 5852 5853 5854 5854 5855 5856 5856 5857 5857 5858 5860 5861 5862 5863 5864 5865 5865 5866 5866 5867 5867 5867 5867 5867 5867 5868 5868 5869 5870 5871 5872 5873 5873 5872 5872 5871 5872 5873 5873 5873 5874 5875 5875 5875 5875 5876 5876 5876 5875 5875 5874 5873 5873 5873 5872 5872
5827 5826 5826 5825 5825 5826 5829 5831 5832 5832 5832 5833 5833 5834 5834 5835 5835 5836 5836 5836 5837 5838 5839 5841 5842 5843 5844 5845 5846 5848 5849 5850 5851 5851 5852 5853 5853 5854 5855 5855 5856 5857 5859 5860 5861 5861 5861 5862 5862 5862 5862 5862 5863 5864 5864 5864 5865 5866 5867 5868 5868 5867 5867 5867 5867 5867 5869 5869 5869 5869 5870 5871 5871 5870 5871 5872 5871 5870 5870 5870 5869 5868 5868 5867 5866
5826 5825 5825 5824 5824 5825 5826 5828 5829 5830 5830 5831 5831 5831 5831 5832 5833 5833 5834 5834 5834 5835 5836 5837 5838 5839 5840 5841 5842 5843 5844 5845 5846 5847 5848 5849 5849 5850 5851 5851 5851 5852 5854 5856 5857 5857 5857 5857 5857 5858 5858 5859 5860 5860 5860 5860 5860 5862 5863 5863 5862 5862 5862 5862 5862 5862 5864 5866 5866 5865 5865 5866 5866 5866 5866 5867 5867 5866 5865 5865 5864 5864 5864 5863 5862
5825 5824 5824 5823 5823 5823 5824 5825 5826 5827 5827 5828 5828 5829 5829 5830 5830 5831 5831 5832 5832 5833 5833 5834 5835 5836 5836 5837 5838 5839 5840 5841 5842 5843 5843 5844 5845 5846 5846 5847 5847 5847 5849 5852 5853 5853 5853 5853 5853 5854 5854 5855 5856 5855 5855 5856 5856 5858 5858 5857 5857 5857 5857 5858 5858 5857 5858 5861 5862 5862 5861 5861 5861 5861 5862 5862 5862 5862 5862 5861 5860 5859 5859 5859 5858
5823 5822 5822 5822 5822 5821 5821 5822 5823 5824 5824 5825 5826 5827 5827 5828 5828 5828 5829 5829 5830 5830 5831 5831 5832 5833 5833 5834 5835 5836 5836 5837 5838 5839 5839 5839 5840 5841 5842 5842 5842 5842 5843 5846 5847 5848 5849 5849 5850 5850 5850 5851 5851 5851 5852 5852 5852 5853 5854 5853 5853 5854 5854 5854 5854 5853 5853 5855 5856 5857 5857 5856 5855 5856 5856 5855 5855 5856 5858 5858 5857 5856 5855 5854 5852
5821 5820 5820 5820 5820 5820 5820 5820 5820 5821 5822 5822 5823 5824 5824 5825 5825 5825 5826 5826 5827 5827 5828 5828 5829 5830 5830 5831 5831 5832 5833 5834 5834 5835 5835 5835 5836 5837 5837 5838 5838 5837 5838 5840 5842 5843 5844 5845 5845 5845 5846 5846 5847 5847 5848 5848 5848 5849 5850 5850 5850 5850 5850 5849 5848 5848 5848 5850 5851 5852 5852 5851 5850 5851 5851 5849 5849 5850 5851 5851 5851 5851 5850 5848 5846
5819 5819 5818 5818 5818 5818 5818 5818 5818 5818 5819 5819 5820 5820 5821 5822 5822 5823 5823 5823 5824 5824 5824 5825 5825 5826 5827 5827 5828 5828 5829 5829 5830 5830 5830 5831 5832 5833 5833 5833 5833 5832 5833 5834 5836 5838 5839 5839 5840 5840 5841 5841 5842 5842 5843 5844 5844 5844 5845 5845 5845 5845 5845 5844 5843 5843 5843 5844 5845 5846 5845 5845 5845 5846 5845 5844 5844 5844 5844 5844 5843 5843 5843 5842 5840
5817 5817 5816 5816 5816 5816 5816 5816 5816 5816 5816 5816 5816 5817 5818 5818 5819 5819 5820 5820 5820 5820 5821 5821 5822 5822 5823 5823 5824 5824 5824 5824 5825 5825 5826 5827 5827 5828 5828 5828 5828 5827 5828 5829 5831 5833 5833 5834 5834 5835 5836 5836 5836 5837 5838 5838 5839 5839 5839 5840 5840 5840 5840 5839 5838 5838 5839 5839 5839 5840 5840 5839 5840 5840 5840 5839 5838 5838 5838 5838 5837 5837 5836 5835 5834
5815 5815 5814 5814 5814 5814 5813 5814 5814 5814 5814 5814 5813 5814 5814 5815 5815 5816 5816 5816 5816 5817 5817 5817 5818 5818 5819 5819 5820 5820 5820 5819 5820 5820 5821 5821 5822 5822 5822 5823 5823 5823 5823 5824 5826 5827 5828 5829 5829 5829 5830 5830 5831 5832 5832 5833 5833 5833 5833 5834 5834 5834 5834 5833 5832 5833 5834 5834 5834 5834 5834 5834 5834 5835 5835 5834 5833 5833 5833 5833 5832 5832 5830 5829 5828
5813 5813 5812 5812 5812 5811 5811 5811 5811 5811 5811 5811 5811 5811 5811 5811 5811 5812 5812 5812 5812 5813 5813 5813 5814 5814 5814 5815 5815 5815 5816 5815 5815 5815 5816 5816 5816 5817 5817 5817 5817 5817 5818 5819 5820 5821 5822 5823 5824 5824 5824 5824 5825 5826 5827 5827 5827 5827 5827 5827 5827 5827 5827 5828 5828 5829 5829 5829 5828 5828 5828 5829 5830 5830 5829 5828 5827 5827 5827 5827 5826 5826 5824 5823 5822
5811 5811 5810 5810 5809 5809 5808 5808 5808 5808 5808 5808 5808 5808 5808 5807 5807 5808 5808 5808 5808 5808 5809 5809 5809 5809 5809 5810 5810 5810 5811 5811 5810 5810 5810 5811 5811 5811 5812 5812 5812 5812 5812 5813 5813 5815 5817 5817 5818 5818 5818 5818 5819 5820 5820 5820 5820 5821 5822 5821 5820 5820 5822 5824 5825 5825 5823 5821 5821 5821 5822 5824 5824 5824 5822 5822 5821 5821 5821 5821 5821 5820 5819 5817 5816
5809 5808 5808 5807 5807 5806 5806 5806 5805 5805 5805 5804 5805 5805 5805 5804 5804 5804 5804 5804 5804 5804 5804 5804 5804 5804 5805 5805 5805 5805 5805 5805 5805 5805 5805 5805 5805 5806 5806 5807 5807 5807 5807 5807 5808 5810 5810 5810 5811 5812 5812 5812 5812 5813 5813 5813 5813 5814 5815 5814 5815 5816 5817 5819 5820 5819 5817 5815 5815 5815 5815 5816 5817 5817 5816 5816 5816 5815 5815 5815 5814 5814 5813 5812 5811
5806 5805 5805 5805 5804 5803 5803 5803 5802 5802 5802 5801 5801 5801 5801 5801 5801 5801 5800 5800 5800 5800 5800 5800 5800 5800 5800 5800 5799 5799 5799 5799 5799 5799 5799 5799 5799 5799 5799 5800 5801 5802 5801 5801 5802 5803 5804 5804 5805 5805 5805 5806 5806 5807 5807 5807 5807 5807 5808 5809 5810 5811 5813 5814 5813 5811 5811 5811 5811 5810 5809 5809 5809 5810 5810 5810 5809 5809 5808 5808 5808 5808 5808 5806 5805
5803 5803 5802 5802 5801 5801 5800 5800 5799 5799 5799 5798 5798 5798 5797 5797 5797 5797 5797 5796 5796 5796 5796 5796 5796 5796 5795 5795 5795 5794 5794 5794 5793 5793 5793 5792 5792 5793 5793 5793 5793 5794 5795 5795 5796 5796 5797 5797 5798 5799 5799 5800 5800 5800 5801 5801 5801 5802 5803 5804 5804 5805 5807 5808 5806 5804 5804 5805 5805 5805 5805 5804 5803 5804 5804 5803 5802 5802 5801 5800 5800 5801 5802 5800 5799
5801 5800 5799 5799 5798 5798 5797 5797 5796 5796 5796 5795 5795 5794 5794 5794 5793 5792 5792 5792 5792 5791 5791 5791 5792 5791 5791 5791 5790 5790 5789 5789 5788 5788 5787 5787 5786 5786 5786 5786 5786 5787 5787 5788 5789 5790 5791 5791 5792 5793 5793 5794 5794 5794 5795 5795 5795 5796 5797 5798 5798 5799 5800 5800 5799 5799 5798 5797 5798 5799 5799 5798 5798 5798 5796 5796 5796 5795 5793 5793 5794 5795 5795 5794 5792
5798 5798 5797 5796 5796 5795 5794 5794 5793 5793 5793 5792 5791 5791 5790 5790 5789 5788 5788 5787 5787 5787 5786 5786 5787 5786 5786 5786 5785 5785 5784 5784 5784 5783 5782 5782 5781 5781 5780 5779 5779 5780 5780 5781 5782 5783 5784 5785 5786 5786 5787 5787 5788 5788 5789 5789 5789 5789 5790 5791 5792 5792 5792 5792 5792 5792 5792 5791 5792 5793 5792 5791 5791 5791 5789 5789 5789 5788 5786 5786 5788 5788 5788 5786 5785
5796 5795 5794 5794 5793 5792 5791 5791 5790 5790 5789 5789 5788 5788 5787 5786 5785 5784 5783 5783 5783 5782 5782 5781 5782 5781 5781 5780 5780 5780 5779 5779 5778 5778 5777 5776 5776 5775 5774 5773 5773 5773 5774 5774 5775 5777 5778 5779 5780 5780 5781 5781 5782 5782 5782 5783 5783 5783 5784 5784 5785 5785 5785 5784 5785 5785 5786 5786 5787 5788 5786 5785 5784 5784 5783 5782 5783 5781 5780 5781 5781 5781 5780 5779 5778
5793 5792 5792 5791 5790 5790 5789 5788 5787 5786 5786 5785 5785 5784 5783 5782 5781 5780 5779 5779 5778 5778 5777 5776 5776 5776 5776 5776 5775 5775 5774 5773 5773 5772 5771 5770 5770 5769 5768 5767 5767 5767 5767 5768 5769 5770 5772 5773 5773 5774 5775 5776 5776 5776 5776 5777 5777 5777 5778 5778 5778 5778 5778 5777 5778 5779 5780 5780 5781 5781 5781 5779 5778 5777 5776 5776 5776 5776 5776 5776 5775 5774 5773 5772 5771
5790 5789 5789 5788 5788 5787 5786 5786 5785 5784 5783 5782 5781 5780 5780 5779 5778 5777 5776 5775 5774 5774 5773 5771 5771 5772 5772 5771 5771 5770 5770 5769 5768 5767 5766 5765 5765 5764 5763 5762 5761 5761 5762 5762 5763 5764 5766 5767 5767 5768 5769 5770 5770 5770 5771 5771 5771 5771 5772 5772 5772 5772 5772 5771 5771 5773 5774 5774 5774 5774 5774 5773 5772 5772 5771 5769 5769 5770 5769 5769 5769 5768 5766 5765 5764
5787 5786 5786 5785 5785 5785 5784 5783 5782 5781 5780 5779 5778 5777 5776 5775 5774 5773 5773 5771 5770 5770 5769 5768 5768 5768 5768 5767 5767 5766 5766 5765 5764 5764 5763 5762 5761 5760 5759 5758 5757 5757 5757 5758 5758 5759 5760 5761 5762 5763 5763 5764 5765 5765 5765 5765 5765 5765 5766 5766 5766 5767 5767 5766 5766 5766 5767 5767 5767 5767 5767 5767 5767 5767 5766 5764 5764 5763 5763 5762 5762 5761 5760 5759 5759
5784 5783 5783 5783 5782 5781 5781 5780 5778 5778 5777 5776 5775 5774 5773 5772 5770 5770 5769 5768 5767 5767 5766 5766 5766 5765 5765 5764 5764 5763 5763 5762 5761 5761 5760 5759 5758 5757 5756 5754 5753 5753 5753 5754 5754 5755 5756 5756 5757 5757 5758 5759 5759 5759 5759 5759 5759 5759 5760 5760 5761 5760 5760 5760 5760 5760 5760 5760 5760 5760 5761 5761 5762 5761 5760 5759 5759 5758 5757 5756 5755 5755 5754 5754 5753
5781 5780 5780 5780 5779 5778 5777 5776 5775 5774 5773 5773 5772 5771 5770 5768 5767 5766 5766 5765 5765 5764 5764 5763 5763 5763 5762 5762 5761 5760 5760 5759 5759 5758 5757 5757 5756 5755 5754 5752 5751 5750 5749 5750 5750 5751 5752 5752 5753 5753 5753 5753 5754 5754 5754 5754 5754 5754 5754 5755 5756 5755 5754 5753 5753 5753 5754 5754 5755 5755 5755 5755 5756 5756 5755 5754 5753 5753 5752 5751 5750 5749 5749 5749 5748
5778 5777 5777 5777 5776 5776 5775 5773 5772 5771 5770 5770 5769 5767 5766 5765 5764 5764 5763 5762 5762 5761 5761 5760 5760 5760 5759 5759 5759 5758 5757 5757 5756 5756 5756 5755 5755 5754 5752 5751 5749 5748 5747 5747 5747 5747 5748 5749 5749 5749 5749 5749 5749 5749 5749 5749 5749 5749 5749 5750 5750 5750 5750 5749 5749 5749 5749 5749 5749 5749 5749 5749 5750 5750 5750 5749 5748 5748 5747 5746 5745 5745 5745 5744 5744
5775 5775 5774 5774 5774 5773 5772 5770 5769 5769 5768 5767 5766 5765 5764 5763 5762 5761 5760 5760 5759 5759 5758 5758 5758 5758 5757 5757 5756 5756 5755 5755 5754 5754 5754 5754 5753 5752 5751 5750 5749 5747 5746 5745 5745 5745 5745 5746 5746 5746 5746 5746 5746 5746 5746 5746 5746 5745 5745 5745 5745 5745 5745 5744 5744 5745 5745 5744 5744 5744 5744 5744 5744 5744 5744 5744 5743 5743 5742 5742 5741 5741 5741 5740 5740
5772 5772 5771 5771 5771 5770 5769 5768 5767 5766 5765 5765 5764 5763 5761 5760 5759 5758 5758 5757 5757 5756 5756 5756 5756 5755 5755 5755 5754 5753 5753 5753 5753 5753 5752 5752 5751 5750 5749 5748 5747 5746 5745 5744 5744 5744 5744 5743 5743 5743 5743 5743 5743 5743 5743 5743 5743 5743 5742 5741 5741 5740 5740 5740 5740 5740 5740 5740 5740 5740 5740 5740 5740 5740 5740 5739 5739 5738 5738 5738 5737 5737 5737 5736 5735
5769 5769 5769 5768 5768 5768 5767 5766 5765 5764 5763 5762 5761 5760 5759 5758 5757 5756 5755 5754 5754 5754 5753 5753 5753 5753 5753 5753 5752 5751 5751 5750 5750 5750 5750 5749 5748 5748 5747 5746 5745 5744 5743 5743 5743 5742 5742 5742 5742 5742 5742 5742 5742 5741 5741 5741 5740 5740 5740 5739 5738 5737 5737 5737 5737 5737 5737 5737 5737 5737 5737 5736 5736 5736 5736 5735 5735 5734 5734 5734 5733 5733 5732 5731 5730
5766 5766 5766 5765 5765 5765 5764 5763 5763 5762 5761 5760 5759 5758 5757 5756 5755 5753 5753 5752 5752 5751 5751 5751 5751 5751 5751 5750 5749 5749 5749 5748 5748 5748 5747 5747 5746 5745 5744 5743 5742 5742 5741 5741 5741 5740 5740 5740 5740 5740 5740 5740 5740 5739 5739 5738 5738 5737 5737 5736 5736 5735 5735 5734 5734 5734 5734 5734 5733 5733 5733 5733 5732 5732 5732 5731 5731 5731 5730 5730 5729 5728 5727 5726 5726
5763 5763 5763 5762 5762 5762 5761 5760 5760 5759 5758 5757 5756 5756 5754 5754 5753 5752 5751 5750 5750 5750 5749 5749 5749 5748 5748 5748 5747 5747 5747 5746 5746 5745 5744 5744 5744 5743 5742 5741 5740 5740 5739 5739 5738 5738 5738 5738 5738 5738 5738 5738 5737 5737 5737 5736 5736 5735 5734 5734 5734 5733 5732 5732 5732 5731 5731 5730 5730 5730 5729 5729 5728 5728 5727 5727 5727 5726 5726 5726 5725 5724 5723 5723 5722
5759 5759 5759 5759 5759 5759 5758 5757 5757 5756 5755 5755 5754 5753 5752 5751 5751 5750 5749 5749 5748 5748 5747 5747 5746 5746 5745 5745 5745 5745 5744 5744 5743 5743 5742 5741 5741 5741 5740 5739 5739 5738 5738 5737 5737 5737 5737 5736 5736 5736 5736 5735 5735 5734 5734 5734 5734 5733 5733 5732 5731 5731 5730 5729 5729 5728 5728 5728 5727 5727 5726 5725 5725 5725 5724 5724 5723 5723 5722 5721 5721 5720 5719 5718 5717
5756 5756 5756 5756 5756 5755 5755 5754 5754 5753 5753 5752 5751 5750 5750 5749 5749 5748 5748 5747 5746 5746 5745 5745 5744 5743 5743 5742 5742 5742 5742 5741 5741 5740 5739 5739 5738 5738 5738 5737 5737 5737 5736 5736 5735 5735 5735 5734 5734 5734 5733 5732 5732 5732 5731 5731 5730 5730 5730 5729 5728 5728 5727 5726 5726 5725 5725 5724 5724 5724 5723 5723 5722 5722 5721 5720 5719 5718 5718 5717 5716 5715 5714 5713 5712
5752 5752 5752 5752 5752 5752 5752 5751 5751 5750 5750 5749 5748 5748 5747 5747 5746 5746 5745 5745 5744 5744 5743 5743 5742 5742 5741 5740 5740 5740 5739 5739 5738 5738 5737 5737 5736 5736 5735 5735 5734 5734 5734 5733 5733 5733 5732 5732 5731 5731 5730 5729 5729 5729 5728 5728 5727 5727 5726 5726 5726 5725 5724 5724 5723 5722 5722 5721 5720 5720 5720 5719 5718 5717 5716 5715 5714 5713 5712 5711 5710 5709 5708 5708 5707